Regional Weather Roundup
Issued by NWS Newport/Morehead, NC

Current Version | Previous Version | Text Only | Print | Product List | Glossary Off
Versions: 1 2 3 4 5 6 7 8 9 10 11 12 13 14 15 16 17 18 19 20 21 22 23 24 25 26 27 28 29 30 31 32 33 34 35 36 37 38 39 40 41 42 43 44 45 46 47 48 49 50
000 ASUS42 KMHX 221510 RWRMHX WEATHER ROUNDUP FOR EASTERN NORTH CAROLINA NATIONAL WEATHER SERVICE NEWPORT/MOREHEAD CITY NC 1100 AM EDT WED OCT 22 2014 NOTE: "FAIR" INDICATES FEW OR NO CLOUDS BELOW 12,000 FEET WITH NO SIGNIFICANT WEATHER AND/OR OBSTRUCTIONS TO VISIBILITY NCZ015>017-031-032-045>047-102-103-221600- NORTH COAST CITY SKY/WX TMP DP RH WIND PRES REMARKS EDENTON NOT AVBL ELIZABETH CITY NOT AVBL KITTY HAWK NOT AVBL MANTEO NOT AVBL $$ NCZ045>047-081-094-103-104-221600- CENTRAL COAST CITY SKY/WX TMP DP RH WIND PRES REMARKS FRISCO NOT AVBL SWANQUARTER N/A 61 N/A N/A NW9G24 29.85S $$ NCZ095-097-098-100-101-221600- SOUTHERN COAST CITY SKY/WX TMP DP RH WIND PRES REMARKS BEAUFORT NOT AVBL CEDAR ISLAND NOT AVBL JACKSONVILLE NOT AVBL PINEY ISLAND PTSUNNY 62 47 57 W15G22 29.91F WILMINGTON NOT AVBL $$ NCZ011>013-027>030-043-044-078>080-089-090>093-098-221600- COASTAL PLAIN CITY SKY/WX TMP DP RH WIND PRES REMARKS AHOSKIE NOT AVBL CLINTON NOT AVBL ELIZABETHTOWN NOT AVBL GOLDSBORO NOT AVBL GREENVILLE NOT AVBL HAVELOCK NOT AVBL KENANSVILLE NOT AVBL KINSTON NOT AVBL NEW BERN NOT AVBL RICHLANDS NOT AVBL ROCKY MOUNT NOT AVBL WASHINGTON NOT AVBL WHITEVILLE NOT AVBL $$ AMZ130-135-150-152-154-156-158-170-250-252-270-ANZ085-086-088-633-658-670-221600- MARINE OBSERVATIONS STATION/POSITION TIME TEMP WIND PRES WAVE SWELL AIR SEA DIR/SP/G HT/PER HT/PER (UTC) (F) (DEG/KT/KT) (MB) (FT/S) (FT/S) CHESAPEAKE LIGHT 1400 56 290/ 23/ 25 1009.6 64 E VA BEACH 1400 62 69 270/ 21/ 27 1007.6 3/ 6 2/ 7 DUCK 1400 56 68 300/ 18/ 22 1009.4 2 E DUCK 1400 N/A 3/ 4 10 NE DUCK 1400 71 N/A 4/ 4 OREGON INLET 1400 57 67 280/ 17/ 21 1010.4 13E OREGON INLT 1400 74 N/A 4/ 5 2/11 HATTERAS CG 1400 58 70 290/ 16/ 19 1011.9 DIAMOND BUOY 1400 62 300/ 21/ 25 1010.9 4/ 5 2/10 17 S OCRACOKE NOT AVBL CAPE LOOKOUT 1400 58 320/ 15/ 18 1013.0 BEAUFORT LAB 1400 58 70 330/ 9/ 14 1012.8 30 SE NEW RIVER 1400 60 76 330/ 19/ 23 1013.1 5 SE WRIGHTSVLE 1400 54 73 330/ 19/ 23 N/A 225 S CAPE HAT NOT AVBL 41 SE CHARLESTON 1400 62 79 350/ 19/ 25 1015.4 5/ 6 2/ 9 $$

USA.gov is the U.S. government's official web portal to all federal, state and local government web resources and services.